Orbital Elements at Epoch 2459200.5 (2020-Dec-17.0) TDB
Reference: JPL 27 (heliocentric ecliptic J2000)
Element | Value | Uncertainty (1-sigma) | Units |
e | .2013891423827698 | 3.9582e-08 | |
a | 2.294551418397324 | 5.0726e-09 | au |
q | 1.832453676093119 | 8.9552e-08 | au |
i | 3.38659818635593 | 3.4907e-06 | deg |
node | 231.29583817341 | 5.922e-05 | deg |
peri | 109.5218962618101 | 5.9773e-05 | deg |
M | 146.8563099990865 | 8.2276e-06 | deg |
tp | 2458682.612738156613 (2019-Jul-18.11273816) | 2.8269e-05 | TDB |
period | 1269.536285262642 3.48 | 4.2099e-06 1.153e-08 | d yr |
n | .2835681060707321 | 9.4034e-10 | deg/d |
Q | 2.756649160701529 | 6.0942e-09 | au |
|
| | Orbit Determination Parameters
Additional Information
|